Tiempo cada hora Zaragoza

Hoy, 27 Octubre, Martes

Tiempo Temperatura Precipitaciones Viento Presión Humedad
00:00 +10°C° 0 mm 3 mps 745 mmHg 66%
01:00 +11°C° 0 mm 4 mps 744 mmHg 61%
02:00 +10°C° 0 mm 4 mps 744 mmHg 67%
03:00 +8°C° 0 mm 4 mps 745 mmHg 73%
04:00 +8°C° 0 mm 4 mps 745 mmHg 72%
05:00 +8°C° 0 mm 4 mps 745 mmHg 72%
06:00 +8°C° 0 mm 4 mps 745 mmHg 72%
07:00 +10°C° 0 mm 4 mps 745 mmHg 68%
08:00 +10°C° 0 mm 5 mps 745 mmHg 63%
09:00 +12°C° 0 mm 5 mps 745 mmHg 59%
10:00 +13°C° 0 mm 5 mps 744 mmHg 55%
11:00 +14°C° 0 mm 4 mps 744 mmHg 52%
12:00 +15°C° 0 mm 4 mps 744 mmHg 48%
13:00 +15°C° 0 mm 4 mps 744 mmHg 46%
14:00 +17°C° 0 mm 3 mps 744 mmHg 45%
15:00 +17°C° 0 mm 3 mps 743 mmHg 43%
16:00 +16°C° 0 mm 3 mps 743 mmHg 48%
17:00 +14°C° 0 mm 3 mps 744 mmHg 52%
18:00 +14°C° 0 mm 2 mps 744 mmHg 57%
19:00 +14°C° 0 mm 2 mps 744 mmHg 58%
20:00 +13°C° 0 mm 3 mps 745 mmHg 60%
21:00 +13°C° 0 mm 3 mps 745 mmHg 61%
22:00 +13°C° 0 mm 2 mps 744 mmHg 65%
23:00 +13°C° 0 mm 2 mps 744 mmHg 64%

Mañana, 28 Octubre, Miércoles

Tiempo Temperatura Precipitaciones Viento Presión Humedad
00:00 +13°C° 0 mm 2 mps 744 mmHg 64%
01:00 +13°C° 0 mm 2 mps 744 mmHg 65%
02:00 +13°C° 0 mm 2 mps 744 mmHg 66%
03:00 +13°C° 0 mm 2 mps 744 mmHg 67%
04:00 +13°C° 0 mm 2 mps 744 mmHg 69%
05:00 +13°C° 0 mm 2 mps 744 mmHg 71%
06:00 +12°C° 0 mm 2 mps 744 mmHg 73%
07:00 +13°C° 0 mm 3 mps 744 mmHg 69%
08:00 +14°C° 0 mm 3 mps 744 mmHg 66%
09:00 +16°C° 0 mm 3 mps 745 mmHg 62%
10:00 +18°C° 0 mm 4 mps 745 mmHg 59%
11:00 +19°C° 0 mm 4 mps 745 mmHg 55%
12:00 +21°C° 0 mm 5 mps 745 mmHg 52%
13:00 +21°C° 0 mm 5 mps 745 mmHg 49%
14:00 +21°C° 0 mm 5 mps 744 mmHg 47%
15:00 +22°C° 0 mm 6 mps 744 mmHg 45%
16:00 +21°C° 0 mm 5 mps 745 mmHg 49%
17:00 +19°C° 0 mm 4 mps 745 mmHg 53%
18:00 +18°C° 0 mm 4 mps 745 mmHg 57%
19:00 +17°C° 0 mm 4 mps 746 mmHg 60%
20:00 +17°C° 0 mm 3 mps 746 mmHg 64%
21:00 +16°C° 0 mm 3 mps 747 mmHg 67%
22:00 +16°C° 0 mm 3 mps 747 mmHg 69%
23:00 +14°C° 0 mm 3 mps 747 mmHg 71%

Pasado mañana, 29 Octubre, Jueves

Tiempo Temperatura Precipitaciones Viento Presión Humedad
00:00 +14°C° 0 mm 3 mps 747 mmHg 73%
01:00 +13°C° 0 mm 3 mps 747 mmHg 75%
02:00 +14°C° 0 mm 2 mps 747 mmHg 77%
03:00 +13°C° 0 mm 2 mps 747 mmHg 78%
04:00 +13°C° 0 mm 2 mps 747 mmHg 80%
05:00 +12°C° 0 mm 1 mps 747 mmHg 82%
06:00 +12°C° 0 mm 1 mps 747 mmHg 83%
07:00 +13°C° 0 mm 1 mps 748 mmHg 77%
08:00 +15°C° 0 mm 1 mps 748 mmHg 71%
09:00 +15°C° 0 mm 0 mps 748 mmHg 65%
10:00 +18°C° 0 mm 1 mps 748 mmHg 61%
11:00 +19°C° 0 mm 1 mps 748 mmHg 56%
12:00 +20°C° 0 mm 1 mps 748 mmHg 52%
13:00 +21°C° 0 mm 1 mps 748 mmHg 51%
14:00 +20°C° 0 mm 2 mps 747 mmHg 50%
15:00 +21°C° 0 mm 2 mps 747 mmHg 49%
16:00 +20°C° 0 mm 2 mps 747 mmHg 53%
17:00 +19°C° 0 mm 2 mps 747 mmHg 57%
18:00 +18°C° 0 mm 3 mps 747 mmHg 61%
19:00 +17°C° 0 mm 2 mps 748 mmHg 62%
20:00 +17°C° 0 mm 2 mps 748 mmHg 64%
21:00 +16°C° 0 mm 2 mps 749 mmHg 66%
22:00 +16°C° 0 mm 2 mps 749 mmHg 69%
23:00 +16°C° 0 mm 2 mps 748 mmHg 72%

30 Octubre, Viernes

Tiempo Temperatura Precipitaciones Viento Presión Humedad
00:00 +15°C° 0 mm 2 mps 748 mmHg 76%
01:00 +15°C° 0 mm 2 mps 748 mmHg 78%
02:00 +14°C° 0 mm 2 mps 748 mmHg 80%
03:00 +14°C° 0 mm 2 mps 748 mmHg 82%
04:00 +14°C° 0 mm 2 mps 747 mmHg 84%
05:00 +13°C° 0 mm 3 mps 747 mmHg 85%
06:00 +12°C° 0 mm 3 mps 747 mmHg 86%
07:00 +14°C° 0 mm 3 mps 747 mmHg 80%
08:00 +16°C° 0 mm 3 mps 748 mmHg 75%
09:00 +17°C° 0 mm 3 mps 748 mmHg 69%
10:00 +19°C° 0 mm 4 mps 747 mmHg 64%
11:00 +20°C° 0 mm 4 mps 747 mmHg 58%
12:00 +22°C° 0 mm 4 mps 747 mmHg 52%
13:00 +22°C° 0 mm 4 mps 747 mmHg 51%
14:00 +22°C° 0 mm 5 mps 746 mmHg 49%
15:00 +23°C° 0 mm 5 mps 746 mmHg 48%
16:00 +22°C° 0 mm 5 mps 746 mmHg 53%
17:00 +21°C° 0 mm 4 mps 746 mmHg 57%
18:00 +20°C° 0 mm 4 mps 746 mmHg 62%
19:00 +19°C° 0 mm 4 mps 746 mmHg 67%
20:00 +18°C° 0 mm 3 mps 746 mmHg 72%
21:00 +18°C° 0 mm 3 mps 746 mmHg 77%
22:00 +17°C° 0 mm 3 mps 746 mmHg 79%
23:00 +17°C° 0 mm 3 mps 746 mmHg 81%

31 Octubre, Sábado

Tiempo Temperatura Precipitaciones Viento Presión Humedad
00:00 +16°C° 0 mm 3 mps 746 mmHg 84%
01:00 +16°C° 0 mm 3 mps 746 mmHg 85%
02:00 +15°C° 0 mm 2 mps 746 mmHg 87%
03:00 +15°C° 0 mm 2 mps 746 mmHg 88%
04:00 +15°C° 0 mm 2 mps 746 mmHg 88%
05:00 +14°C° 0 mm 2 mps 746 mmHg 88%
06:00 +14°C° 0 mm 2 mps 746 mmHg 88%

1 Noviembre, Domingo

Tiempo Temperatura Precipitaciones Viento Presión Humedad
Mostrar más

Necesitamos Su Consentimiento

Meteoprog y nuestros Proveedores de Servicios pueden almacenar y acceder a sus datos personales como cookies, identificadores de dispositivo u otras tecnologías similares de su dispositivo y procesar dichos datos para personalizar contenido y anuncios, además de ofrecer funciones de redes sociales y analizar el tráfico.

  • Almacenar y/o acceder a información en su dispositivo

    Se puede almacenar o acceder a cookies, identificadores de dispositivo u otra información de su dispositivo para los fines anteriormente indicados.

  • Anuncios y contenido personalizados, medición de anuncios y contenido, percepciones del público, y desarrollo de productos

    Los anuncios y el contenido pueden personalizarse en base a su perfil. Se pueden añadir más datos para personalizar mejor los anuncios y contenidos. Se puede medir el rendimiento de los anuncios y contenidos. Se puede obtener la percepción sobre el público que ha visto los anuncios y contenidos. Dichos datos pueden usarse para desarrollar o mejorar la experiencia del usuario, sistemas y software.

Al hacer clic en ‘Estoy De Acuerdo’ usted permitirá el uso de las cookies, identificadores de dispositivo, balizas web u otras tecnologías similares indicadas. Su configuración puede cambiarse desde el navegador de su dispositivo.

Para ciertos fines, los intereses legítimos pueden ser considerados por encima del consentimiento. Puede leer más sobre ello en nuestra Política de Privacidad y Cookies.